BV1EV-2 Weather Reports


Display with metric or nautical units.
time (UTC)temp
F
wind
direction
speed
MPH
gust
MPH
rain 1hr
in
rain 24hr
in
rain mn
in
humidity
%
barometer
mb
20260508073747 87 0.0 0.0 0.00 0.00 0.00 45 1012.5
20260508071747 87 0.0 0.0 0.00 0.00 0.00 55 1012.5
20260508065748 87 0.0 0.0 0.00 0.00 0.00 56 1012.6
20260508063748 88 0.0 0.0 0.00 0.00 0.00 52 1012.5
20260508061748 88 0.0 0.0 0.00 0.00 0.00 52 1012.3
20260508055748 87 0.0 0.0 0.00 0.00 0.00 52 1012.5
20260508053747 87 0.0 0.0 0.00 0.00 0.00 52 1012.9
20260508051747 86 0.0 0.0 0.00 0.00 0.00 53 1013.0
20260508045747 83 0.0 0.0 0.00 0.00 0.00 61 1012.9
20260508043747 83 0.0 0.0 0.00 0.00 0.00 61 1013.0
20260508041747 82 0.0 0.0 0.00 0.00 0.00 62 1013.3
20260508035747 82 0.0 0.0 0.00 0.00 0.00 62 1013.4
20260508033747 81 0.0 0.0 0.00 0.00 0.00 64 1013.5
20260508031748 80 0.0 0.0 0.00 0.00 0.00 65 1013.7
20260508025747 79 0.0 0.0 0.00 0.00 0.00 57 1013.6
20260508023747 77 0.0 0.0 0.00 0.00 0.00 46 1013.5
20260508021747 76 0.0 0.0 0.00 0.00 0.00 41 1013.4
20260508015746 76 0.0 0.0 0.00 0.00 0.00 40 1013.1
20260508013747 76 0.0 0.0 0.00 0.00 0.00 41 1012.9
20260508011747 76 0.0 0.0 0.00 0.00 0.00 41 1012.9
20260508005747 76 0.0 0.0 0.00 0.00 0.00 41 1012.8
20260508003747 76 0.0 0.0 0.00 0.00 0.00 41 1012.8
20260508001747 77 0.0 0.0 0.00 0.00 0.00 41 1012.6
20260507235747 77 0.0 0.0 0.00 0.00 0.00 41 1012.5
20260507233748 78 0.0 0.0 0.00 0.00 0.00 41 1012.3
20260507231748 79 0.0 0.0 0.00 0.00 0.00 42 1012.3
20260507225747 80 0.0 0.0 0.00 0.00 0.00 50 1012.3
20260507223747 79 0.0 0.0 0.00 0.00 0.00 44 1012.1
20260507221747 80 0.0 0.0 0.00 0.00 0.00 48 1011.7
20260507215748 81 0.0 0.0 0.00 0.00 0.00 51 1011.5
20260507213748 80 0.0 0.0 0.00 0.00 0.00 47 1011.3
20260507211748 80 0.0 0.0 0.00 0.00 0.00 45 1011.1
20260507205748 80 0.0 0.0 0.00 0.00 0.00 49 1011.1
20260507203748 80 0.0 0.0 0.00 0.00 0.00 53 1010.9
20260507201747 79 0.0 0.0 0.00 0.00 0.00 46 1010.6
20260507195747 79 0.0 0.0 0.00 0.00 0.00 43 1010.4
20260507193747 81 0.0 0.0 0.00 0.00 0.00 51 1010.4
20260507191747 79 0.0 0.0 0.00 0.00 0.00 41 1010.2
20260507185748 81 0.0 0.0 0.00 0.00 0.00 45 1010.1
20260507183748 81 0.0 0.0 0.00 0.00 0.00 52 1010.2
20260507181748 81 0.0 0.0 0.00 0.00 0.00 40 1010.2
20260507175747 81 0.0 0.0 0.00 0.00 0.00 42 1010.1
20260507173747 83 0.0 0.0 0.00 0.00 0.00 47 1009.9
20260507171747 83 0.0 0.0 0.00 0.00 0.00 42 1009.9
20260507165747 84 0.0 0.0 0.00 0.00 0.00 45 1009.9
20260507163747 86 0.0 0.0 0.00 0.00 0.00 53 1010.1
20260507161747 85 0.0 0.0 0.00 0.00 0.00 52 1010.2
20260507155747 83 0.0 0.0 0.00 0.00 0.00 63 1010.5
20260507153748 82 0.0 0.0 0.00 0.00 0.00 62 1010.7
20260507151748 84 0.0 0.0 0.00 0.00 0.00 49 1010.8
20260507145747 84 0.0 0.0 0.00 0.00 0.00 50 1010.9
20260507143747 84 0.0 0.0 0.00 0.00 0.00 48 1011.0
20260507141747 84 0.0 0.0 0.00 0.00 0.00 49 1011.0
20260507135747 84 0.0 0.0 0.00 0.00 0.00 51 1011.0
20260507133747 87 0.0 0.0 0.00 0.00 0.00 49 1010.9
20260507131747 86 0.0 0.0 0.00 0.00 0.00 49 1010.8
20260507125747 87 0.0 0.0 0.00 0.00 0.00 49 1010.7
20260507123747 89 0.0 0.0 0.00 0.00 0.00 50 1010.7
20260507121748 90 0.0 0.0 0.00 0.00 0.00 53 1010.5
20260507115748 90 0.0 0.0 0.00 0.00 0.00 54 1010.4
20260507113747 90 0.0 0.0 0.00 0.00 0.00 53 1010.1
20260507111747 90 0.0 0.0 0.00 0.00 0.00 54 1010.0
20260507105747 90 0.0 0.0 0.00 0.00 0.00 53 1009.8
20260507103748 89 0.0 0.0 0.00 0.00 0.00 56 1009.6
20260507101748 90 0.0 0.0 0.00 0.00 0.00 53 1009.5
20260507095747 90 0.0 0.0 0.00 0.00 0.00 53 1009.4
20260507093748 90 0.0 0.0 0.00 0.00 0.00 53 1009.2
20260507091748 90 0.0 0.0 0.00 0.00 0.00 53 1009.1
20260507085747 90 0.0 0.0 0.00 0.00 0.00 53 1008.7
20260507083747 89 0.0 0.0 0.00 0.00 0.00 54 1008.6
20260507081747 89 0.0 0.0 0.00 0.00 0.00 53 1008.2
20260507075747 89 0.0 0.0 0.00 0.00 0.00 53 1008.1